Location: Paris
(48.6709°N, 2.3750°E)
Time: 14:31:31
(UTC+02:00)

NOAA 18 - Pass Details

Date: 02 July 2022
Orbit: 839 x 860 km, 98.9° (Epoch: 11 August)

Event Time Altitude Azimuth Distance (km) Brightness Sun altitude
Exits shadow 22:44:30 - 143° (SE) 2,659 7.1 -6.7°
Reaches altitude 10° 22:44:58 10° 142° (SE) 2,479 7.0 -6.8°
Maximum altitude 22:50:17 52° 67° (ENE) 1,063 5.6 -7.4°
Drops below altitude 10° 22:55:39 10° 353° (N) 2,506 8.6 -8.0°
Sets 22:58:05 0° 349° (N) 3,449 9.6 -8.2°
